• In Czech Republic
  • List of Countries
  • For 7 days
  • Water Temperature
  • Satellite Maps
  • Weather Map
  • Weather Widgets
  • user-avatar
    Login

    Hourly Weather Ganja

    Today, 26 September, Wednesday

    Time Temperature Precipitation Wind Pressure Humidity
    00:00 +24°C° 0 mm 1 mps 725 mmHg 64%
    01:00 +24°C° 0 mm 2 mps 725 mmHg 63%
    02:00 +23°C° 0 mm 2 mps 725 mmHg 62%
    03:00 +22°C° 0 mm 3 mps 725 mmHg 61%
    04:00 +21°C° 0 mm 3 mps 725 mmHg 61%
    05:00 +21°C° 0 mm 3 mps 725 mmHg 60%
    06:00 +21°C° 0 mm 3 mps 725 mmHg 60%
    07:00 +22°C° 0 mm 3 mps 726 mmHg 55%
    08:00 +25°C° 0 mm 3 mps 726 mmHg 51%
    09:00 +27°C° 0 mm 4 mps 726 mmHg 47%
    10:00 +27°C° 0.1 mm 3 mps 726 mmHg 45%
    11:00 +28°C° 0.1 mm 3 mps 726 mmHg 43%
    12:00 +29°C° 0.1 mm 3 mps 726 mmHg 42%
    13:00 +29°C° 0.1 mm 2 mps 726 mmHg 42%
    14:00 +29°C° 0.1 mm 2 mps 726 mmHg 42%
    15:00 +29°C° 0.1 mm 2 mps 726 mmHg 42%
    16:00 +28°C° 0 mm 2 mps 726 mmHg 45%
    17:00 +27°C° 0 mm 2 mps 727 mmHg 48%
    18:00 +26°C° 0 mm 2 mps 727 mmHg 52%
    19:00 +25°C° 0.6 mm 2 mps 728 mmHg 56%
    20:00 +24°C° 0.6 mm 3 mps 728 mmHg 60%
    21:00 +24°C° 0.6 mm 3 mps 728 mmHg 64%
    22:00 +22°C° 0.7 mm 3 mps 729 mmHg 66%
    23:00 +23°C° 0.7 mm 2 mps 729 mmHg 68%

    Tomorrow, 27 September, Thursday

    Time Temperature Precipitation Wind Pressure Humidity
    00:00 +21°C° 0.7 mm 2 mps 729 mmHg 70%
    01:00 +21°C° 0.1 mm 2 mps 729 mmHg 72%
    02:00 +20°C° 0.1 mm 2 mps 729 mmHg 75%
    03:00 +20°C° 0.1 mm 2 mps 729 mmHg 77%
    04:00 +20°C° 0.1 mm 1 mps 729 mmHg 78%
    05:00 +20°C° 0.1 mm 1 mps 729 mmHg 80%
    06:00 +20°C° 0.1 mm 1 mps 729 mmHg 82%
    07:00 +20°C° 0.1 mm 1 mps 730 mmHg 79%
    08:00 +21°C° 0.1 mm 1 mps 730 mmHg 77%
    09:00 +20°C° 0.1 mm 2 mps 730 mmHg 75%
    10:00 +21°C° 0 mm 2 mps 730 mmHg 73%
    11:00 +21°C° 0 mm 2 mps 730 mmHg 72%
    12:00 +21°C° 0 mm 3 mps 730 mmHg 70%
    13:00 +22°C° 0 mm 3 mps 730 mmHg 69%
    14:00 +22°C° 0 mm 3 mps 730 mmHg 69%
    15:00 +22°C° 0 mm 3 mps 729 mmHg 68%
    16:00 +22°C° 0 mm 3 mps 729 mmHg 71%
    17:00 +21°C° 0 mm 2 mps 730 mmHg 74%
    18:00 +20°C° 0 mm 2 mps 730 mmHg 77%
    19:00 +20°C° 0 mm 2 mps 730 mmHg 78%
    20:00 +20°C° 0 mm 2 mps 730 mmHg 79%
    21:00 +21°C° 0 mm 1 mps 731 mmHg 80%
    22:00 +20°C° 0 mm 1 mps 731 mmHg 80%
    23:00 +20°C° 0 mm 1 mps 731 mmHg 80%

    Day after tomorrow, 28 September, Friday

    Time Temperature Precipitation Wind Pressure Humidity
    00:00 +20°C° 0 mm 1 mps 731 mmHg 81%
    01:00 +20°C° 0 mm 1 mps 731 mmHg 81%
    02:00 +20°C° 0 mm 1 mps 731 mmHg 81%
    03:00 +20°C° 0 mm 1 mps 730 mmHg 82%
    04:00 +19°C° 0 mm 1 mps 730 mmHg 82%
    05:00 +19°C° 0 mm 1 mps 730 mmHg 83%
    06:00 +19°C° 0 mm 1 mps 730 mmHg 83%
    07:00 +20°C° 0 mm 1 mps 731 mmHg 80%
    08:00 +19°C° 0 mm 2 mps 731 mmHg 77%
    09:00 +20°C° 0 mm 2 mps 731 mmHg 74%
    10:00 +21°C° 0 mm 2 mps 731 mmHg 71%
    11:00 +22°C° 0 mm 3 mps 730 mmHg 68%
    12:00 +22°C° 0 mm 3 mps 730 mmHg 65%
    13:00 +24°C° 0 mm 3 mps 730 mmHg 65%
    14:00 +23°C° 0 mm 4 mps 729 mmHg 65%
    15:00 +23°C° 0 mm 4 mps 729 mmHg 64%
    16:00 +22°C° 0 mm 4 mps 729 mmHg 68%
    17:00 +21°C° 0 mm 3 mps 729 mmHg 72%
    18:00 +21°C° 0 mm 3 mps 729 mmHg 76%
    19:00 +20°C° 0 mm 3 mps 729 mmHg 78%
    20:00 +20°C° 0 mm 2 mps 729 mmHg 79%
    21:00 +19°C° 0 mm 2 mps 729 mmHg 81%
    22:00 +19°C° 0 mm 2 mps 729 mmHg 81%
    23:00 +20°C° 0 mm 1 mps 729 mmHg 82%

    29 September, Saturday

    Time Temperature Precipitation Wind Pressure Humidity
    00:00 +20°C° 0 mm 1 mps 729 mmHg 82%
    01:00 +20°C° 0 mm 1 mps 728 mmHg 82%
    02:00 +19°C° 0 mm 1 mps 728 mmHg 82%
    03:00 +17°C° 0 mm 0 mps 728 mmHg 83%
    04:00 +19°C° 0 mm 1 mps 728 mmHg 83%
    05:00 +19°C° 0 mm 1 mps 727 mmHg 83%
    06:00 +18°C° 0 mm 1 mps 727 mmHg 83%
    07:00 +20°C° 0 mm 1 mps 727 mmHg 76%
    08:00 +22°C° 0 mm 1 mps 727 mmHg 69%
    09:00 +23°C° 0 mm 2 mps 727 mmHg 62%
    10:00 +24°C° 0 mm 2 mps 726 mmHg 57%
    11:00 +25°C° 0 mm 2 mps 726 mmHg 53%
    12:00 +27°C° 0 mm 2 mps 725 mmHg 48%
    13:00 +27°C° 0 mm 2 mps 725 mmHg 47%
    14:00 +27°C° 0 mm 2 mps 725 mmHg 46%
    15:00 +28°C° 0 mm 1 mps 724 mmHg 45%
    16:00 +27°C° 0 mm 1 mps 724 mmHg 49%
    17:00 +26°C° 0 mm 1 mps 724 mmHg 53%
    18:00 +25°C° 0 mm 1 mps 725 mmHg 58%
    19:00 +24°C° 0 mm 1 mps 725 mmHg 59%
    20:00 +24°C° 0 mm 1 mps 725 mmHg 60%
    21:00 +23°C° 0 mm 1 mps 725 mmHg 61%
    22:00 +23°C° 0 mm 1 mps 725 mmHg 62%
    23:00 +22°C° 0 mm 1 mps 725 mmHg 63%

    30 September, Sunday

    Time Temperature Precipitation Wind Pressure Humidity
    00:00 +22°C° 0 mm 1 mps 725 mmHg 63%
    01:00 +22°C° 0 mm 1 mps 725 mmHg 63%
    02:00 +21°C° 0 mm 1 mps 725 mmHg 62%
    03:00 +21°C° 0 mm 1 mps 725 mmHg 61%
    04:00 +21°C° 0 mm 1 mps 725 mmHg 60%
    05:00 +20°C° 0 mm 2 mps 725 mmHg 59%
    06:00 +20°C° 0 mm 2 mps 725 mmHg 58%
    07:00 +21°C° 0 mm 2 mps 725 mmHg 53%
    08:00 +24°C° 0 mm 2 mps 725 mmHg 48%
    09:00 +26°C° 0 mm 2 mps 725 mmHg 43%
    10:00 +27°C° 0 mm 2 mps 725 mmHg 41%
    11:00 +28°C° 0 mm 2 mps 724 mmHg 38%
    12:00 +29°C° 0 mm 2 mps 724 mmHg 35%
    13:00 +30°C° 0 mm 2 mps 724 mmHg 35%
    14:00 +30°C° 0 mm 2 mps 723 mmHg 34%
    15:00 +31°C° 0 mm 2 mps 723 mmHg 33%
    16:00 +29°C° 0 mm 1 mps 723 mmHg 38%
    17:00 +28°C° 0 mm 1 mps 724 mmHg 42%
    18:00 +24°C° 0 mm 0 mps 724 mmHg 47%
    19:00 +26°C° 0 mm 1 mps 724 mmHg 47%
    20:00 +25°C° 0 mm 1 mps 725 mmHg 47%
    21:00 +25°C° 0 mm 1 mps 725 mmHg 47%
    22:00 +24°C° 0 mm 1 mps 725 mmHg 48%
    23:00 +24°C° 0 mm 1 mps 725 mmHg 49%

    1 October, Monday

    Time Temperature Precipitation Wind Pressure Humidity
    00:00 +23°C° 0 mm 1 mps 725 mmHg 49%
    01:00 +23°C° 0 mm 1 mps 726 mmHg 51%
    02:00 +22°C° 0 mm 1 mps 726 mmHg 52%
    03:00 +22°C° 0 mm 1 mps 726 mmHg 53%
    04:00 +22°C° 0 mm 1 mps 726 mmHg 56%
    05:00 +21°C° 0 mm 1 mps 726 mmHg 59%
    06:00 +21°C° 0 mm 1 mps 727 mmHg 61%
    07:00 +21°C° 0 mm 2 mps 727 mmHg 61%
    08:00 +24°C° 0 mm 2 mps 727 mmHg 60%
    09:00 +25°C° 0 mm 3 mps 727 mmHg 60%
    10:00 +26°C° 0 mm 4 mps 727 mmHg 57%
    11:00 +27°C° 0 mm 4 mps 727 mmHg 54%
    12:00 +28°C° 0 mm 5 mps 727 mmHg 52%
    13:00 +29°C° 0 mm 5 mps 727 mmHg 51%
    14:00 +29°C° 0 mm 5 mps 727 mmHg 51%
    15:00 +29°C° 0 mm 5 mps 727 mmHg 50%
    16:00 +28°C° 0.1 mm 4 mps 727 mmHg 55%
    17:00 +27°C° 0.1 mm 4 mps 727 mmHg 59%
    18:00 +26°C° 0.1 mm 4 mps 728 mmHg 63%
    19:00 +25°C° 0.1 mm 4 mps 728 mmHg 65%
    20:00 +23°C° 0.1 mm 4 mps 728 mmHg 66%
    21:00 +23°C° 0.1 mm 4 mps 728 mmHg 68%
    22:00 +22°C° 0 mm 4 mps 728 mmHg 70%
    23:00 +22°C° 0 mm 4 mps 728 mmHg 71%
    Show more